Погода в Накхонпатоме

Таиланд     13°49′13″N   100°03′43″E
темп.,
°C
ветер,
м/с
пор.,
м/с
влажн.,
%
обл.,
%
осадки,
мм/ч
давл.,
гПа
погр.,
м
17 мая, пн
пн1701:00+29ю377596 0.0 1006328
04:00+28ю237523 0.0 100559
07:00+29ююз236986 0.0 1007189
10:00+35ю224468 0.0 10081339
13:00+39ююв3334100 0.0 10062720
16:00+37юв643988 0.1 10031672
19:00+31ю586557 0.1 1005478
22:00+30ю5107032 0.0 1007450
18 мая, вт
вт1801:00+29ю487371 0.0 1006371
04:00+28ююз247634 0.0 1005131
07:00+29ю247027 0.0 1007235
10:00+35ю344546 0.0 10081484
13:00+39ююв443526 0.0 10052410
16:00+37юв754118 0.0 10031508
19:00+31ююв696899 0.1 1005656
22:00+30ююв597210 0.3 1007544
19 мая, ср
ср1901:00+29ю477514 0.8 1006366
04:00+28юз23785 0.0 100584
07:00+29зюз2371100 0.0 1007214
10:00+35зюз3348100 0.0 10081335
13:00+36зсз234296 0.4 10052004
16:00+32ююв466199 0.1 1004234
19:00+29св1275100 5.4 1007113
22:00+28юз2276100 0.4 100734
20 мая, чт
чт2001:00+27юз3375100 0.4 100657
04:00+26зюз357949 0.0 100699
07:00+27зюз357697 0.0 1008203
10:00+33з4449100 0.0 10081023
13:00+38з343561 0.0 10052112
16:00+38юз2432100 0.0 10022449
19:00+31ю4860100 0.0 1005495
22:00+31ююз36668 0.0 1006337
21 мая, пт
пт2101:00+29зюз48686 0.1 1005273
04:00+27зюз3675100 0.0 1005216
07:00+28з237150 0.0 1006229
10:00+34зюз3348100 0.0 10071274
13:00+38юз3338100 0.0 10042495
16:00+35ююз3547100 0.2 1002911
19:00+30ююв2468100 0.4 1004217
22:00+30юз4863100 0.0 1006392